Allentown, PA

4:02 PM EST on December 11, 2019 (GMT -0500)
Allentown

Weather History for KXLL - June, 2019

Change the Weather History Date:

Saturday, June 8, 2019

  Actual Average (KABE) Record (KABE)
Temperature  
Mean Temperature - -  
Max Temperature - 80 °F 96 °F (2011)
Min Temperature - 56 °F 39 °F (1932)
Moisture  
Dew Point -    
Average Humidity    
Maximum Humidity    
Minimum Humidity    
Precipitation  
Precipitation 0.00 in - - ()
Sea Level Pressure  
Sea Level Pressure 30.14 in    
Wind  
Wind Speed 5 mph ()    
Max Wind Speed 16 mph    
Max Gust Speed 23 mph    
Visibility 10.0 miles    
Events      
Averages and records for this station are not official NWS values.
T = Trace of Precipitation, MM = Missing Value Source: Averaged Metar Reports

Daily Weather History Graph

Daily Weather History Graph

Search for Another Location

Airport or City:

Astronomy

Jun. 08, 2019 Rise Set
Actual Time 5:31 AM EDT 8:30 PM EDT
Civil Twilight 4:58 AM EDT 9:03 PM EDT
Nautical Twilight 4:16 AM EDT 9:45 PM EDT
Astronomical Twilight 3:27 AM EDT 10:34 PM EDT
Moon 10:56 AM EDT (6/8) 12:30 AM EDT (6/8)
Length of Visible Light 16h 05m
Length of Day
14h 59m
Waxing Crescent, 32% of the Moon is Illuminated
Jun 8
Waxing Crescent
Jun 10
First Quarter
Jun 17
Full
Jun 25
Last Quarter
Jul 2
New

Hourly Weather History & Observations

Time (EDT) Temp. Dew Point Humidity Pressure Visibility Wind Dir Wind Speed Gust Speed Precip Events Conditions
12:15 AM - - N/A% 30.03 in 10.0 mi Calm Calm - N/A   Clear
12:35 AM - - N/A% 30.02 in 10.0 mi Calm Calm - N/A   Clear
12:55 AM - - N/A% 30.03 in 10.0 mi Calm Calm - N/A   Clear
1:15 AM - - N/A% 30.03 in 10.0 mi Calm Calm - N/A   Clear
1:35 AM - - N/A% 30.03 in 10.0 mi Calm Calm - N/A   Clear
1:55 AM - - N/A% 30.04 in 10.0 mi Calm Calm - N/A   Clear
2:15 AM - - N/A% 30.04 in 10.0 mi Calm Calm - N/A   Clear
2:35 AM - - N/A% 30.04 in 10.0 mi Calm Calm - N/A   Clear
2:55 AM - - N/A% 30.04 in 10.0 mi Calm Calm - N/A   Clear
3:15 AM - - N/A% 30.04 in 10.0 mi Calm Calm - N/A   Clear
3:35 AM - - N/A% 30.04 in 10.0 mi Calm Calm - N/A   Clear
3:55 AM - - N/A% 30.04 in 10.0 mi Calm Calm - N/A   Clear
4:15 AM - - N/A% 30.05 in 10.0 mi Calm Calm - N/A   Clear
4:35 AM - - N/A% 30.06 in 10.0 mi Calm Calm - N/A   Clear
4:55 AM - - N/A% 30.07 in 10.0 mi Calm Calm - N/A   Clear
5:15 AM - - N/A% 30.08 in 10.0 mi Calm Calm - N/A   Clear
5:35 AM - - N/A% 30.09 in 10.0 mi Calm Calm - N/A   Clear
5:55 AM - - N/A% 30.10 in 10.0 mi NNE 5.8 mph - N/A   Clear
6:15 AM - - N/A% 30.11 in 10.0 mi NNE 8.1 mph - N/A   Clear
6:35 AM - - N/A% 30.11 in 10.0 mi NNE 8.1 mph - N/A   Clear
6:55 AM - - N/A% 30.12 in 10.0 mi North 5.8 mph - N/A   Clear
7:15 AM - - N/A% 30.12 in 10.0 mi ENE 3.5 mph - N/A   Clear
7:35 AM - - N/A% 30.13 in 10.0 mi NE 5.8 mph - N/A   Clear
7:55 AM - - N/A% 30.13 in 10.0 mi NNE 4.6 mph - N/A   Clear
8:15 AM - - N/A% 30.13 in 10.0 mi NNE 4.6 mph - N/A   Clear
8:35 AM - - N/A% 30.13 in 10.0 mi NNE 3.5 mph - N/A   Clear
8:55 AM - - N/A% 30.13 in 10.0 mi NNE 4.6 mph - N/A   Clear
9:15 AM - - N/A% 30.14 in 10.0 mi NE 8.1 mph - N/A   Clear
9:35 AM - - N/A% 30.14 in 10.0 mi NE 9.2 mph - N/A   Clear
9:55 AM - - N/A% 30.14 in 10.0 mi ENE 9.2 mph - N/A   Clear
10:15 AM - - N/A% 30.14 in 10.0 mi ENE 11.5 mph - N/A   Clear
10:35 AM - - N/A% 30.14 in 10.0 mi NE 11.5 mph - N/A   Clear
10:55 AM - - N/A% 30.15 in 10.0 mi East 15.0 mph 23.0 mph N/A   Clear
11:15 AM - - N/A% 30.16 in 10.0 mi ENE 10.4 mph 17.3 mph N/A   Clear
11:35 AM - - N/A% 30.16 in 10.0 mi East 11.5 mph - N/A   Clear
11:55 AM - - N/A% 30.16 in 10.0 mi East 15.0 mph 21.9 mph N/A   Clear
12:15 PM - - N/A% 30.16 in 10.0 mi East 15.0 mph - N/A   Clear
12:35 PM - - N/A% 30.16 in 10.0 mi ENE 12.7 mph - N/A   Clear
12:55 PM - - N/A% 30.16 in 10.0 mi ENE 12.7 mph - N/A   Clear
1:15 PM - - N/A% 30.16 in 10.0 mi East 12.7 mph - N/A   Clear
1:35 PM - - N/A% 30.16 in 10.0 mi ESE 16.1 mph - N/A   Clear
1:55 PM - - N/A% 30.16 in 10.0 mi East 9.2 mph 16.1 mph N/A   Clear
2:15 PM - - N/A% 30.16 in 10.0 mi SE 10.4 mph - N/A   Clear
2:35 PM - - N/A% 30.16 in 10.0 mi ESE 9.2 mph - N/A   Clear
2:55 PM - - N/A% 30.16 in 10.0 mi East 15.0 mph - N/A   Clear
3:15 PM - - N/A% 30.16 in 10.0 mi ESE 12.7 mph - N/A   Clear
3:35 PM - - N/A% 30.16 in 10.0 mi ESE 9.2 mph - N/A   Clear
3:55 PM - - N/A% 30.16 in 10.0 mi East 9.2 mph - N/A   Clear
4:15 PM - - N/A% 30.16 in 10.0 mi SE 11.5 mph 17.3 mph N/A   Clear
4:35 PM - - N/A% 30.16 in 10.0 mi East 10.4 mph - N/A   Clear
4:55 PM - - N/A% 30.16 in 10.0 mi SE 11.5 mph 16.1 mph N/A   Clear
5:15 PM - - N/A% 30.16 in 10.0 mi ESE 11.5 mph 18.4 mph N/A   Clear
5:35 PM - - N/A% 30.16 in 10.0 mi SE 9.2 mph - N/A   Clear
5:55 PM - - N/A% 30.16 in 10.0 mi East 13.8 mph - N/A   Clear
6:15 PM - - N/A% 30.17 in 10.0 mi East 9.2 mph - N/A   Clear
6:35 PM - - N/A% 30.18 in 10.0 mi SE 9.2 mph - N/A   Clear
6:55 PM - - N/A% 30.19 in 10.0 mi East 9.2 mph - N/A   Clear
7:15 PM - - N/A% 30.19 in 10.0 mi East 9.2 mph - N/A   Clear
7:35 PM - - N/A% 30.19 in 10.0 mi SE 10.4 mph - N/A   Clear
7:55 PM - - N/A% 30.19 in 10.0 mi SE 9.2 mph - N/A   Clear
8:15 PM - - N/A% 30.19 in 10.0 mi SE 8.1 mph - N/A   Clear
8:35 PM - - N/A% 30.19 in 10.0 mi SE 11.5 mph - N/A   Clear
8:55 PM - - N/A% 30.19 in 10.0 mi SE 11.5 mph - N/A   Clear
9:15 PM - - N/A% 30.20 in 10.0 mi SE 9.2 mph - N/A   Clear
9:35 PM - - N/A% 30.21 in 10.0 mi SE 11.5 mph - N/A   Clear
9:55 PM - - N/A% 30.21 in 10.0 mi ESE 15.0 mph - N/A   Clear
10:15 PM - - N/A% 30.22 in 10.0 mi ESE 12.7 mph - N/A   Clear
10:35 PM - - N/A% 30.22 in 10.0 mi SE 9.2 mph 13.8 mph N/A   Clear
10:55 PM - - N/A% 30.23 in 10.0 mi ESE 10.4 mph - N/A   Clear
11:15 PM - - N/A% 30.23 in 10.0 mi East 5.8 mph - N/A   Clear
11:35 PM - - N/A% 30.23 in 10.0 mi Calm Calm - N/A   Clear
11:55 PM - - N/A% 30.24 in 10.0 mi Calm Calm - N/A   Clear